Location: Newark
(52.4787°S, 179.0532°W)
Time: 03:47:06
(UTC+00:00)

Transit 2A Rocket - Pass Details

Date: 20 November 2019
Orbit: 594 x 909 km, 66.7° (Epoch: 05 December)

Event Time Altitude Azimuth Distance (km) Brightness Sun altitude
Rises 04:36:50 0° 221° (SW) 3,567 9.0 25.2°
Reaches altitude 10° 04:39:27 10° 216° (SW) 2,628 8.4 24.8°
Maximum altitude 04:45:30 54° 139° (SE) 1,104 5.9 23.9°
Drops below altitude 10° 04:51:20 10° 61° (ENE) 2,538 7.3 23.0°
Sets 04:53:50 0° 56° (ENE) 3,436 7.9 22.7°
